Location: Cudham
(51.3000°N, 0.0667°E)
Time: 00:46:15
(UTC+00:00)

CZ-4 R/B - Pass Details

Date: 19 May 2025
Orbit: 499 x 550 km, 97.6° (Epoch: 18 June)

Event Time Altitude Azimuth Distance (km) Brightness Sun altitude
Rises 20:24:25 0° 197° (SSW) 2,717 4.6 -5.0°
Reaches altitude 10° 20:26:51 10° 212° (SSW) 1,826 3.9 -5.3°
Maximum altitude 20:30:05 24° 266° (W) 1,173 3.6 -5.7°
Drops below altitude 10° 20:33:19 10° 322° (NW) 1,827 5.7 -6.1°
Sets 20:35:47 0° 336° (NNW) 2,719 6.3 -6.3°
